Regional Weather Roundup
Issued by NWS

Home | Current Version | Previous Version | Text Only | Print | Product List | Glossary On
Versions: 1 2 3 4 5 6 7 8 9 10 11 12 13 14 15 16 17 18 19 20 21 22 23 24 25 26 27 28 29 30 31 32 33 34 35 36 37 38 39 40 41 42 43 44 45 46 47 48 49 50
000
ASUS43 KMKX 062300
RWRWI

WISCONSIN REGIONAL WEATHER ROUNDUP
NATIONAL WEATHER SERVICE MILWAUKEE/SULLIVAN WI
600 PM CDT MON JUL 06 2015

NOTE: "FAIR" INDICATES FEW OR NO CLOUDS BELOW 12,000 FEET WITH NO
SIGNIFICANT WEATHER AND/OR OBSTRUCTIONS TO VISIBILITY.

WIZ001-002-006>008-014>016-023>028-070000-
NORTHWEST WISCONSIN

CITY           SKY/WX    TMP DP  RH WIND       PRES   REMARKS
SUPERIOR ARPT  PTSUNNY   68  56  64 NW12      29.93R
ASHLAND        CLOUDY    64  61  90 CALM      29.93R FOG
HAYWARD        CLOUDY    64  59  83 N8        29.94S HAZE
SIREN          CLOUDY    69  56  64 N8        29.94S HAZE
CUMBERLAND     CLOUDY    63  55  77 N10G17    29.94R HAZE
RICE LAKE      MOSUNNY   65  57  75 N10       29.94S HAZE
CHETEK         CLOUDY    64  59  83 NW8G22    29.93R HAZE
LADYSMITH      CLOUDY    62  58  86 N12       29.93R FOG
EAU CLAIRE     CLOUDY    66  57  72 N15       29.91R HAZE
MENOMONIE      CLOUDY    67  58  73 N12       29.92S HAZE
NEW RICHMOND   CLOUDY    67  57  71 N10       29.94S HAZE
OSCEOLA        PTSUNNY   68  59  74 N7        29.97S HAZE
$$

WIZ003>005-009-010-017-018-070000-
NORTH CENTRAL WISCONSIN

CITY           SKY/WX    TMP DP  RH WIND       PRES   REMARKS
MANITOWISH WTR CLOUDY    58  58 100 N7        29.90S FOG
ARBOR VITAE    DRIZZLE   59  57  92 N9        29.88R
WOODRUFF       DRIZZLE   59  57  92 N9        29.88R
RHINELANDER    LGT RAIN  59  56  89 N12G20    29.88R FOG
EAGLE RIVER    LGT RAIN  57  57 100 N14       29.86S
LAND O LAKES   LGT RAIN  57  55  94 N14G20    29.89S
PHILLIPS       CLOUDY    59  56  89 N13       29.90R FOG
TOMAHAWK       RAIN      59  56  92 N7        29.88R
MEDFORD        CLOUDY    61  58  91 N13G20    29.88R
MERRILL        LGT RAIN  61  61  99 N12G21    29.86R
$$

WIZ029-030-035-036-043>047-070000-
CENTRAL WISCONSIN

CITY           SKY/WX    TMP DP  RH WIND       PRES   REMARKS
WAUSAU         LGT RAIN  64  60  87 N13G26    29.82R
MOSINEE        CLOUDY    64  63  94 NW23G29   29.84R
MARSHFIELD     CLOUDY    65  59  81 N16       29.85R
STEVENS POINT  LGT RAIN  69  67  94 W12G17    29.81S
WAUPACA        CLOUDY    79  70  74 SW13G20   29.79R HX  81
WAUTOMA        NOT AVBL
WISC RAPIDS    LGT RAIN  72  69  90 W9G20     29.82S
CAMP DOUGLAS   NOT AVBL
$$

WIZ011>013-019>022-031-037>040-048>050-070000-
NORTHEAST WISCONSIN

CITY           SKY/WX    TMP DP  RH WIND       PRES   REMARKS
ANTIGO         DRIZZLE   69  67  95 W8G20     29.79S
SHAWANO        HVY RAIN  73  69  86 SW15G25   29.78R
OCONTO         CLOUDY    76  74  92 CALM      29.76S
STURGEON BAY   CLOUDY    66  63  88 S8        29.80F
GREEN BAY      CLOUDY    79  70  74 S15G23    29.77F HX  82
MANITOWOC      NOT AVBL
APPLETON       CLOUDY    79  66  65 SW13      29.79F HX  81
CLINTONVILLE   HVY RAIN  72  70  94 W15G21    29.79R
OSHKOSH        PTSUNNY   79  69  71 SW12G22   29.79S HX  81
$$

WIZ032>034-041-042-053>061-070000-
SOUTHWEST WISCONSIN

CITY           SKY/WX    TMP DP  RH WIND       PRES   REMARKS
LA CROSSE      CLOUDY    68  63  84 NW17      29.86R
SPARTA         LGT RAIN  67  65  94 NW9       29.85R
VIROQUA        CLOUDY    71  71 100 SW5       29.83S VSB 1
BOSCOBEL       CLOUDY    80  71  74 SW7       29.80F HX  84
PRAIRIE DU CHI RAIN      78  70  78 SW6       29.81S
PLATTEVILLE    CLOUDY    77  72  84 S8        29.84F
$$

WIZ056-057-062-063-064-067-068-070000-
SOUTH CENTRAL WISCONSIN

CITY           SKY/WX    TMP DP  RH WIND       PRES   REMARKS
REEDSBURG      DRIZZLE   76  71  83 SW6       29.81F
BARABOO/DELLS  CLOUDY    77  67  71 SW8       29.81F
LONE ROCK      NOT AVBL
MINERAL POINT  CLOUDY    77  70  78 SW10      29.85F
MADISON        CLOUDY    79  69  71 SW9       29.82S HX  81
MIDDLETON      CLOUDY    80  69  69 SW8       29.84S HX  83
WATERTOWN      CLOUDY    78  72  81 SW12G18   29.83S HX  81
MONROE         CLOUDY    77  70  78 SW13      29.85S
JANESVILLE     PTSUNNY   79  72  78 SW10      29.84F HX  82
$$

WIZ051-052-058>065-066-070>072-070000-
SOUTHEAST WISCONSIN

CITY           SKY/WX    TMP DP  RH WIND       PRES   REMARKS
MILWAUKEE      PTSUNNY   79  67  66 SW18      29.83F HX  81
WAUKESHA       PTSUNNY   75  66  73 S8        29.85F
MILWAUKEE/TIMM NOT AVBL
RACINE         PTSUNNY   76  68  76 SW8       29.86F
BURLINGTON     PTSUNNY   74  68  82 SW5       29.86S
KENOSHA        CLOUDY    75  70  84 SW3       29.85F
FOND DU LAC    PTSUNNY   80  70  71 SW10      29.80F HX  83
SHEBOYGAN      PTSUNNY   80  69  69 SW15      29.80F HX  83
WEST BEND      MOSUNNY   79  68  69 SW7G18    29.83S HX  81
JUNEAU         PTSUNNY   77  69  77 SW14      29.84S
$$

LSZ147-162-070000-
LAKE SUPERIOR

STATION/POSITION TIME  TEMP    WIND        PRES    WAVE
                       AIR SEA DIR/SP/G            HT/PER
                 (UTC) (F)     (DEG/KT/KT) (MB)    (FT/S)
W MID LAKE BUOY  2150   49 39  300/  6/  6 1012.9R   0
DEVILS ISLAND    2200   60     250/  3/  5 1013.1F
PORT WING        2200   63     280/  4/  5 1013.2F
SAXON HARBOR     2200   59        CALM     1012.9R
$$

LMZ867-665-643>646-070000-
LAKE MICHIGAN

STATION/POSITION TIME  TEMP    WIND        PRES    WAVE
                       AIR SEA DIR/SP/G            HT/PER
                 (UTC) (F)     (DEG/KT/KT) (MB)    (FT/S)
CHAMBERS ISLAND  2200   72     150/  6/ 11 1008.1F
N MID LAKE BUOY  2150   60 56  210/ 17/ 19 1008.6F   4/ 5
NORTHPORT PIER   2200   66     170/  7/ 15 1008.8S
SISTER BAY       2214   65     160/ 11/ 15   N/A
ALGOMA LAKESHORE 2241          220/ 13/ 15   N/A
KEWAUNEE LAKESHO 2200   59     180/ 12/ 14 1008.5F
SHEBOYGAN LAKESH 2200   71     190/ 13/ 13 1009.4F
PORT WASHINGTON  2200   68     170/  9/ 10 1010.2F
ATWATER BUOY     2200   65 59  170/ 10/ 16 1011.4F
MILWAUKEE LAKESH 2200   78     210/ 14/ 17   N/A
KENOSHA   LAKESH 2200   70     180/  9/ 12 1010.5F
$$

TC  - TEMPERATURE IN CELSIUS
VSB - VISIBILITY IN STATUTE MILES
WCI - WIND CHILL INDEX
HX  - HEAT INDEX



USA.gov is the U.S. government's official web portal to all federal, state and local government web resources and services.